Location: Haliburton Scout Reserve
(45.0900°N, 78.3200°W)
Time: 03:01:26
(UTC-04:00)

DIWATA 2B (PO-101) - Pass Details

Date: 25 May 2022
Orbit: 585 x 597 km, 98.0° (Epoch: 27 June)

Event Time Altitude Azimuth Distance (km) Brightness Sun altitude
Exits shadow 02:07:06 16° 111° (ESE) 1,582 ? -22.7°
Maximum altitude 02:09:26 25° 66° (ENE) 1,212 ? -22.6°
Drops below altitude 10° 02:12:50 10° 12° (NNE) 1,925 ? -22.4°
Sets 02:15:17 0° 359° (N) 2,833 ? -22.3°
